Location: Unspecified
(44.0704°N, 88.6889°W)
Time: 18:35:49
(UTC+02:00)

Okean 3 - Pass Details

Date: 29 March 2019
Orbit: 578 x 600 km, 82.5° (Epoch: 16 October)

Event Time Altitude Azimuth Distance (km) Brightness Sun altitude
Exits shadow 10:15:02 17° 141° (SE) 1,521 5.6 -25.6°
Maximum altitude 10:17:32 31° 90° (E) 1,074 5.2 -25.2°
Drops below altitude 10° 10:21:19 10° 29° (NNE) 1,951 6.9 -24.6°
Sets 10:23:43 0° 19° (NNE) 2,857 7.7 -24.3°
